Location: Newark
(33.4453°N, 112.0669°W)
Time: 02:25:45
(UTC+00:00)

N. Korean satellite - Visible Passes

Search period start: 27 January 2020 00:00
Search period end: 06 February 2020 00:00
Orbit: 454 x 507 km, 97.2° (Epoch: 26 January)

Date Brightness Start Highest point End Pass type
(mag) Time Alt. Az. Time Alt. Az. Time Alt. Az.
27 Jan 9.6 01:18:59 10° SW 01:21:32 19° W 01:24:06 10° NW visible
27 Jan 8.2 12:48:08 10° NNE 12:51:30 37° E 12:54:55 10° SSE visible
28 Jan 9.6 12:23:30 10° NE 12:25:56 17° E 12:28:22 10° SE visible
28 Jan 7.8 13:56:23 10° NNW 13:59:13 22° WNW 14:02:04 10° SW visible
29 Jan 6.8 13:30:20 10° N 13:33:50 49° WNW 13:37:23 10° SSW visible
30 Jan 10.2 01:37:20 10° WSW 01:38:28 11° W 01:39:37 10° WNW visible
30 Jan 6.9 13:04:46 10° NNE 13:08:23 68° E 13:12:02 10° S visible
31 Jan 8.7 12:39:39 10° NE 12:42:52 28° E 12:46:05 10° SSE visible
01 Feb 10.0 12:15:25 10° ENE 12:17:15 13° E 12:19:05 10° SE visible
01 Feb 7.5 13:47:27 10° NNW 13:50:37 28° WNW 13:53:49 10° SW visible
02 Feb 6.5 13:21:35 10° N 13:25:13 66° WNW 13:28:53 10° SSW visible
03 Feb 9.9 01:27:41 10° SW 01:29:44 15° W 01:31:47 10° WNW visible
03 Feb 7.5 12:56:10 10° NNE 12:59:44 50° E 13:03:20 10° S visible
04 Feb 9.2 12:31:15 10° NE 12:34:11 22° E 12:37:07 10° SSE visible
05 Feb 10.3 12:08:04 10° E 12:08:32 10° E 12:09:00 10° E visible
05 Feb 7.1 13:38:36 10° N 13:42:01 37° WNW 13:45:26 10° SW visible
